Location: Barcelona
(41.3830°N, 2.1830°E)
Time: 22:53:44
(UTC+02:00)

ISS - Pass Details

Date: 26 July 2017
Orbit: 400 x 408 km, 51.6° (Epoch: 24 July)

Event Time Altitude Azimuth Distance (km) Brightness Sun altitude
Rises 00:48:51 0° 294° (WNW) 2,311 0.6 -27.1°
Reaches altitude 10° 00:51:43 10° 322° (NW) 1,453 -0.2 -27.3°
Maximum altitude 00:53:30 14° 355° (N) 1,241 -0.5 -27.4°
Drops below altitude 10° 00:55:18 10° 29° (NNE) 1,454 -0.5 -27.5°
Enters shadow 00:56:44 - 46° (NE) 1,840 -0.2 -27.5°
